Regional Weather Roundup
Issued by NWS Huntsville, AL

Home | Current Version | Previous Version | Text Only | Print | Product List | Glossary On
Versions: 1 2 3 4 5 6 7 8 9 10 11 12 13 14 15 16 17 18 19 20 21 22 23 24 25 26 27 28 29 30 31 32 33 34 35 36 37 38 39 40 41 42 43 44 45 46 47 48 49 50
970
ASUS44 KHUN 291810
RWRHUN

WEATHER ROUNDUP FOR THE TENNESSEE VALLEY
NATIONAL WEATHER SERVICE HUNTSVILLE AL
100 PM CDT SUN MAY 29 2016

ALZ001>004-291900-
NORTHWEST ALABAMA

CITY           SKY/WX    TMP DP  RH WIND       PRES   REMARKS
SHOALS AIRPORT PTSUNNY   87  64  46 NW3       30.13F
6HR MIN TEMP:  67; 6HR MAX TEMP:  88;

$$

ALZ005>007-016-291900-
NORTH CENTRAL ALABAMA

CITY           SKY/WX    TMP DP  RH WIND       PRES   REMARKS
DECATUR AP     SUNNY     86  64  47 VRB7      30.12F
6HR MIN TEMP:  66; 6HR MAX TEMP:  86;

HUNTSVILLE AP  PTSUNNY   86  62  44 VRB6      30.12F
6HR MIN TEMP:  69; 6HR MAX TEMP:  88;

HUN NWS/UAH      N/A     86  60  41 NW6         N/A
MERIDIANVILLE  MOSUNNY   86  54  32 NW7       30.12F
VINEMONT AP    FAIR      82  64  54 N3        30.16S
$$

ALZ008>010-291900-
NORTHEAST ALABAMA

CITY           SKY/WX    TMP DP  RH WIND       PRES   REMARKS
FORT PAYNE     PTSUNNY   82  55  39 CALM      30.12F
SCOTTSBORO AP  MOSUNNY   84  63  48 W7        30.11F
VALLEY HEAD      N/A     81 N/A N/A MISG        N/A
$$

TNZ076-096-097-291900-
SOUTHEASTERN MIDDLE TENNESSEE

CITY           SKY/WX    TMP DP  RH WIND       PRES   REMARKS
TULLAHOMA      MOSUNNY   82  64  54 CALM      30.14F
WINCHESTER     MOSUNNY   86  64  48 VRB5      30.13F
$$

...SURROUNDING SITES...

CITY           SKY/WX    TMP DP  RH WIND       PRES   REMARKS
ATLANTA        PTSUNNY   87  59  38 NW9       30.11F
ANNISTON       MOSUNNY   86  61  42 VRB6      30.12F
BIRMINGHAM     MOSUNNY   86  63  45 N6        30.14F
CHATTANOOGA    PTSUNNY   86  60  41 N9        30.11F
DALTON         SUNNY     84  59  42 NW6       30.11F
GADSDEN        PTSUNNY   85  63  47 NW7       30.12F
GOLDEN TRNGL   MOSUNNY   88  66  48 NW7       30.11F HX  90
HALEYVILLE     FAIR      85  64  49 VRB7      30.16F
JACKSON TN     MOSUNNY   84  66  54 CALM      30.11F
MEMPHIS        MOSUNNY   87  70  56 SW6       30.11F HX  92
NASHVILLE      PTSUNNY   87  63  44 CALM      30.11F
OXFORD MS      FAIR      84  64  51 N5        30.13F
ROME           MOSUNNY   89  61  38 N8        30.10F
SAVANNAH       MOSUNNY   86  66  51 W8        30.11F
TUPELO         SUNNY     87  65  47 VRB7      30.11F
TUSCALOOSA     PTSUNNY   86  65  49 VRB3      30.11F
$$

...GULF COAST WEATHER...

CITY           SKY/WX    TMP DP  RH WIND       PRES   REMARKS
GULFPORT       PTSUNNY   85  67  54 S6        30.10F
PASCAGOULA     MOSUNNY   87  68  52 VRB7      30.10F HX  90
MOBILE         PTSUNNY   85  67  54 CALM      30.11F
GULF SHORES    CLEAR     84  68  58 S12       30.10F
PENSACOLA      MOSUNNY   87  66  49 S12       30.09F
DESTIN         SUNNY     86  74  67 VRB7      30.08F HX  94
APPALACHICOLA  MOSUNNY   86  74  67 S14       30.07F HX  94
$$





USA.gov is the U.S. government's official web portal to all federal, state and local government web resources and services.